Franklin, PA

9:12 AM EST on November 20, 2019 (GMT -0500)
Venango Regional

Weather History for KFKL - June, 2019

Change the Weather History Date:

Monday, June 3, 2019

  Actual Average Record
Temperature  
Mean Temperature 50 °F -  
Max Temperature 59 °F 76 °F 96 °F (1934)
Min Temperature 44 °F 50 °F 32 °F (1929)
Degree Days  
Heating Degree Days 14    
Moisture  
Dew Point 37 °F    
Average Humidity 61    
Maximum Humidity 86    
Minimum Humidity 42    
Precipitation  
Precipitation 0.00 in - - ()
Sea Level Pressure  
Sea Level Pressure 30.08 in    
Wind  
Wind Speed 6 mph (NW)    
Max Wind Speed 13 mph    
Max Gust Speed 24 mph    
Visibility 10 miles    
Events      
Averages and records for this station are not official NWS values.
T = Trace of Precipitation, MM = Missing Value Source: NWS Daily Summary

Daily Weather History Graph

Daily Weather History Graph

Search for Another Location

Airport or City:

Astronomy

Jun. 03, 2019 Rise Set
Actual Time 5:47 AM EDT 8:47 PM EDT
Civil Twilight 5:14 AM EDT 9:21 PM EDT
Nautical Twilight 4:32 AM EDT 10:03 PM EDT
Astronomical Twilight 3:42 AM EDT 10:53 PM EDT
Moon 6:07 AM EDT (6/3) 9:10 PM EDT (6/3)
Length of Visible Light 16h 06m
Length of Day
15h 00m
New Moon, 0% of the Moon is Illuminated
Jun 3
New Moon
Jun 10
First Quarter
Jun 17
Full
Jun 25
Last Quarter
Jul 2
New

Hourly Weather History & Observations

Time (EDT) Temp. Windchill Dew Point Humidity Pressure Visibility Wind Dir Wind Speed Gust Speed Precip Events Conditions
12:56 AM 48.0 °F - 42.1 °F 80% 29.92 in 10.0 mi Calm Calm - N/A   Mostly Cloudy
1:56 AM 51.1 °F - 39.9 °F 66% 29.92 in 10.0 mi NW 6.9 mph - N/A   Overcast
2:56 AM 48.9 °F - 43.0 °F 80% 29.93 in 10.0 mi WNW 6.9 mph - N/A   Mostly Cloudy
3:56 AM 48.0 °F - 44.1 °F 86% 29.94 in 10.0 mi Variable 5.8 mph - N/A   Overcast
4:56 AM 46.0 °F 42.5 °F 36.0 °F 68% 29.96 in 10.0 mi Variable 6.9 mph - N/A   Scattered Clouds
5:56 AM 44.1 °F 41.5 °F 35.1 °F 71% 29.99 in 10.0 mi NW 4.6 mph - N/A   Clear
6:56 AM 44.1 °F 40.1 °F 36.0 °F 73% 30.02 in 10.0 mi NW 6.9 mph - N/A   Clear
7:56 AM 46.0 °F 43.9 °F 37.0 °F 71% 30.05 in 10.0 mi NNW 4.6 mph - N/A   Clear
8:38 AM 48.2 °F - 37.4 °F 66% 30.05 in 10.0 mi NNW 9.2 mph - N/A   Mostly Cloudy
8:56 AM 48.0 °F - 36.0 °F 63% 30.08 in 10.0 mi NW 9.2 mph 17.3 mph N/A   Scattered Clouds
9:56 AM 51.1 °F - 37.0 °F 59% 30.09 in 10.0 mi NW 10.4 mph 16.1 mph N/A   Unknown
10:56 AM 53.1 °F - 36.0 °F 52% 30.11 in 10.0 mi WNW 12.7 mph 19.6 mph N/A   Clear
11:56 AM 54.0 °F - 36.0 °F 51% 30.12 in 10.0 mi WNW 10.4 mph 20.7 mph N/A   Partly Cloudy
12:56 PM 54.0 °F - 35.1 °F 49% 30.14 in 10.0 mi West 12.7 mph 20.7 mph N/A   Clear
1:56 PM 55.9 °F - 35.1 °F 45% 30.13 in 10.0 mi WNW 11.5 mph - N/A   Clear
2:56 PM 57.0 °F - 36.0 °F 45% 30.12 in 10.0 mi NW 10.4 mph - N/A   Clear
3:56 PM 57.9 °F - 35.1 °F 42% 30.12 in 10.0 mi Variable 4.6 mph 24.2 mph N/A   Clear
4:56 PM 57.9 °F - 35.1 °F 42% 30.12 in 10.0 mi NNW 11.5 mph 17.3 mph N/A   Clear
5:56 PM 57.0 °F - 36.0 °F 45% 30.14 in 10.0 mi Variable 6.9 mph - N/A   Clear
6:56 PM 55.9 °F - 33.1 °F 42% 30.14 in 10.0 mi NW 8.1 mph - N/A   Clear
7:56 PM 54.0 °F - 36.0 °F 51% 30.15 in 10.0 mi NW 4.6 mph - N/A   Clear
8:56 PM 48.9 °F - 36.0 °F 61% 30.16 in 10.0 mi WNW 4.6 mph - N/A   Clear
9:56 PM 48.0 °F - 35.1 °F 61% 30.17 in 10.0 mi NW 3.5 mph - N/A   Clear
10:56 PM 44.1 °F - 37.0 °F 76% 30.17 in 10.0 mi Calm Calm - N/A   Clear
11:56 PM 44.1 °F - 36.0 °F 73% 30.17 in 10.0 mi Calm Calm - N/A   Clear